Terminal Aerodrome Forecast
Issued by NWS

Home | Current Version | Previous Version | Graphics & Text | Print | Product List | Glossary On
Versions: 1 2 3 4 5 6 7 8 9 10 11 12 13 14 15 16 17 18 19 20 21 22 23 24 25 26 27 28 29 30 31 32 33 34 35 36 37 38 39 40 41 42 43 44 45 46 47 48 49 50
000
FTUS43 KLOT 211600 AAB
TAFGYY
TAF AMD
KGYY 211602Z 2116/2212 30015G24KT P6SM BKN025
     FM211800 34015G23KT P6SM VCSH BKN025
     FM212100 36011G17KT P6SM BKN030
     FM220600 01011KT P6SM SCT030=

USA.gov is the U.S. government's official web portal to all federal, state and local government web resources and services.